DW5479 Weather Reports


Display with metric or nautical units.
time (UTC)temp
F
wind
direction
speed
MPH
gust
MPH
rain 1hr
in
rain 24hr
in
rain mn
in
humidity
%
barometer
mb
20210924220100 86 22 0.0 8.0 0.00 0.00 0.00 32 1015.0
20210924215602 86 84 2.0 8.0 0.00 0.00 0.00 32 1014.9
20210924215105 85 101 3.0 8.0 0.00 0.00 0.00 31 1015.0
20210924214606 85 82 1.0 6.0 0.00 0.00 0.00 32 1015.0
20210924214042 85 117 3.0 8.0 0.00 0.00 0.00 32 1015.0
20210924213540 85 150 3.0 9.0 0.00 0.00 0.00 31 1015.0
20210924213103 86 72 2.0 6.0 0.00 0.00 0.00 31 1015.1
20210924212602 85 117 2.0 8.0 0.00 0.00 0.00 31 1015.1
20210924212041 85 128 3.0 8.0 0.00 0.00 0.00 31 1015.2
20210924211552 85 149 2.0 7.0 0.00 0.00 0.00 30 1015.3
20210924211039 85 47 1.0 5.0 0.00 0.00 0.00 30 1015.3
20210924210542 85 157 2.0 6.0 0.00 0.00 0.00 29 1015.3
20210924210047 86 53 1.0 7.0 0.00 0.00 0.00 30 1015.4
20210924205535 86 65 2.0 7.0 0.00 0.00 0.00 29 1015.4
20210924205035 86 79 2.0 6.0 0.00 0.00 0.00 29 1015.5
20210924204623 86 139 0.0 8.0 0.00 0.00 0.00 28 1015.5
20210924204035 86 103 3.0 8.0 0.00 0.00 0.00 29 1015.7
20210924203532 86 139 0.0 6.0 0.00 0.00 0.00 29 1015.7
20210924203044 85 136 2.0 9.0 0.00 0.00 0.00 30 1015.8
20210924202529 85 57 3.0 8.0 0.00 0.00 0.00 31 1015.8
20210924202031 85 25 2.0 9.0 0.00 0.00 0.00 30 1015.8
20210924201635 85 89 1.0 6.0 0.00 0.00 0.00 31 1015.8
20210924201033 85 163 2.0 9.0 0.00 0.00 0.00 30 1015.8
20210924200535 85 145 2.0 7.0 0.00 0.00 0.00 31 1015.8
20210924200033 85 129 0.0 9.0 0.00 0.00 0.00 31 1015.9
20210924195527 85 76 3.0 9.0 0.00 0.00 0.00 32 1016.0
20210924195026 85 120 1.0 7.0 0.00 0.00 0.00 31 1016.0
20210924194526 85 82 0.0 7.0 0.00 0.00 0.00 31 1016.0
20210924194026 85 56 1.0 8.0 0.00 0.00 0.00 32 1016.1
20210924193523 84 81 0.0 8.0 0.00 0.00 0.00 30 1016.3
20210924193034 84 86 0.0 4.0 0.00 0.00 0.00 33 1016.4
20210924192527 83 210 0.0 10.0 0.00 0.00 0.00 33 1016.5
20210924192020 84 83 3.0 10.0 0.00 0.00 0.00 31 1016.6
20210924191540 84 131 0.0 8.0 0.00 0.00 0.00 32 1016.6
20210924191033 83 74 3.0 8.0 0.00 0.00 0.00 33 1016.7
20210924190518 83 102 2.0 9.0 0.00 0.00 0.00 33 1016.7
20210924190027 84 131 5.0 10.0 0.00 0.00 0.00 33 1016.7
20210924185516 84 109 3.0 10.0 0.00 0.00 0.00 33 1016.8
20210924185033 84 120 1.0 7.0 0.00 0.00 0.00 34 1016.9
20210924184601 83 140 1.0 7.0 0.00 0.00 0.00 34 1017.0
20210924184014 84 121 3.0 7.0 0.00 0.00 0.00 34 1017.0
20210924183513 83 26 1.0 7.0 0.00 0.00 0.00 36 1017.1
20210924183013 83 113 1.0 7.0 0.00 0.00 0.00 35 1017.3
20210924182514 82 138 0.0 6.0 0.00 0.00 0.00 36 1017.4
20210924182011 82 55 1.0 9.0 0.00 0.00 0.00 36 1017.5
20210924181511 82 128 5.0 9.0 0.00 0.00 0.00 35 1017.6
20210924181013 82 120 1.0 7.0 0.00 0.00 0.00 37 1017.7
20210924180521 81 155 2.0 7.0 0.00 0.00 0.00 36 1017.7
20210924180017 81 229 2.0 7.0 0.00 0.00 0.00 37 1017.7
20210924175508 81 154 3.0 7.0 0.00 0.00 0.00 37 1017.9
20210924175007 81 87 0.0 10.0 0.00 0.00 0.00 37 1018.0
20210924174514 81 94 3.0 11.0 0.00 0.00 0.00 37 1018.1
20210924174008 82 69 1.0 7.0 0.00 0.00 0.00 38 1018.1
20210924173505 81 52 0.0 8.0 0.00 0.00 0.00 41 1018.2
20210924173007 81 101 2.0 8.0 0.00 0.00 0.00 40 1018.3
20210924172505 80 85 0.0 8.0 0.00 0.00 0.00 39 1018.4
20210924172007 80 112 1.0 8.0 0.00 0.00 0.00 40 1018.4
20210924171502 80 193 0.0 9.0 0.00 0.00 0.00 41 1018.4
20210924171009 79 148 3.0 9.0 0.00 0.00 0.00 41 1018.5
20210924170501 80 157 0.0 5.0 0.00 0.00 0.00 41 1018.5
20210924170212 79 145 0.0 6.0 0.00 0.00 0.00 44 1018.6
20210924165708 79 110 3.0 6.0 0.00 0.00 0.00 44 1018.7
20210924165107 78 155 0.0 10.0 0.00 0.00 0.00 43 1018.6
20210924164646 78 204 6.0 10.0 0.00 0.00 0.00 44 1018.7
20210924164100 78 79 2.0 7.0 0.00 0.00 0.00 44 1018.8
20210924163557 78 115 3.0 9.0 0.00 0.00 0.00 45 1018.8
20210924163126 78 62 3.0 9.0 0.00 0.00 0.00 45 1018.9
20210924162610 78 75 2.0 7.0 0.00 0.00 0.00 46 1018.9
20210924162054 78 124 0.0 6.0 0.00 0.00 0.00 47 1018.9
20210924161741 78 80 1.0 5.0 0.00 0.00 0.00 47 1019.0
20210924161102 77 91 2.0 8.0 0.00 0.00 0.00 48 1018.9
20210924160559 77 83 1.0 8.0 0.00 0.00 0.00 46 1018.9
20210924160154 77 60 0.0 10.0 0.00 0.00 0.00 47 1018.9
20210924155552 76 140 2.0 7.0 0.00 0.00 0.00 47 1018.8
20210924155055 76 68 2.0 7.0 0.00 0.00 0.00 49 1018.8
20210924154610 76 210 1.0 5.0 0.00 0.00 0.00 51 1018.8
20210924154047 76 136 1.0 7.0 0.00 0.00 0.00 51 1018.8
20210924153545 76 134 1.0 7.0 0.00 0.00 0.00 51 1018.9
20210924153138 75 112 1.0 7.0 0.00 0.00 0.00 51 1018.8
20210924152603 75 185 0.0 8.0 0.00 0.00 0.00 55 1018.8
20210924152046 74 110 0.0 10.0 0.00 0.00 0.00 57 1018.8
20210924151613 74 236 3.0 10.0 0.00 0.00 0.00 59 1018.8
20210924151050 74 357 0.0 2.0 0.00 0.00 0.00 59 1018.7
20210924150545 73 70 0.0 2.0 0.00 0.00 0.00 61 1018.7
20210924150058 73 278 0.0 0.0 0.00 0.00 0.00 62 1018.7
20210924145536 71 167 0.0 1.0 0.00 0.00 0.00 63 1018.8
20210924145035 71 89 0.0 2.0 0.00 0.00 0.00 65 1018.8
20210924144558 70 117 0.0 2.0 0.00 0.00 0.00 65 1018.8
20210924144032 70 69 0.0 1.0 0.00 0.00 0.00 66 1018.8
20210924143538 69 79 0.0 0.0 0.00 0.00 0.00 67 1018.9
20210924143119 68 83 0.0 0.0 0.00 0.00 0.00 68 1018.9
20210924142527 67 96 0.0 0.0 0.00 0.00 0.00 70 1018.9
20210924142039 67 95 0.0 0.0 0.00 0.00 0.00 71 1018.9
20210924141611 66 73 0.0 0.0 0.00 0.00 0.00 73 1018.8
20210924141026 64 18 0.0 0.0 0.00 0.00 0.00 76 1018.7
20210924140525 64 53 0.0 2.0 0.00 0.00 0.00 76 1018.7
20210924140117 63 51 0.0 2.0 0.00 0.00 0.00 76 1018.7
20210924135527 63 54 0.0 2.0 0.00 0.00 0.00 77 1018.7
20210924135031 62 65 0.0 0.0 0.00 0.00 0.00 77 1018.7
20210924134549 62 64 0.0 0.0 0.00 0.00 0.00 78 1018.7
20210924134031 61 82 0.0 0.0 0.00 0.00 0.00 79 1018.7
20210924133527 60 72 0.0 0.0 0.00 0.00 0.00 82 1018.8
20210924133105 59 72 0.0 0.0 0.00 0.00 0.00 84 1018.7
20210924132522 58 72 0.0 0.0 0.00 0.00 0.00 85 1018.8
20210924132022 57 72 0.0 0.0 0.00 0.00 0.00 87 1018.7
20210924131526 56 72 0.0 0.0 0.00 0.00 0.00 88 1018.6
20210924131036 55 72 0.0 0.0 0.00 0.00 0.00 89 1018.6
20210924130527 54 72 0.0 0.0 0.00 0.00 0.00 90 1018.6
20210924130030 54 72 0.0 0.0 0.00 0.00 0.00 90 1018.6
20210924125520 53 72 0.0 0.0 0.00 0.00 0.00 91 1018.6
20210924125019 52 72 0.0 0.0 0.00 0.00 0.00 92 1018.5
20210924124525 51 94 0.0 0.0 0.00 0.00 0.00 92 1018.5
20210924124019 50 94 0.0 0.0 0.00 0.00 0.00 91 1018.4
20210924123519 50 94 0.0 0.0 0.00 0.00 0.00 91 1018.3
20210924123057 50 94 0.0 0.0 0.00 0.00 0.00 91 1018.4
20210924122520 50 94 0.0 0.0 0.00 0.00 0.00 91 1018.4
20210924122037 50 94 0.0 0.0 0.00 0.00 0.00 91 1018.4
20210924121519 51 94 0.0 0.0 0.00 0.00 0.00 91 1018.2
20210924121018 51 94 0.0 0.0 0.00 0.00 0.00 91 1018.2
20210924120522 51 94 0.0 0.0 0.00 0.00 0.00 91 1018.1
20210924120035 51 94 0.0 0.0 0.00 0.00 0.00 91 1018.0
20210924115517 51 94 0.0 0.0 0.00 0.00 0.00 91 1018.0
20210924115015 51 94 0.0 0.0 0.00 0.00 0.00 91 1018.0
20210924114530 51 94 0.0 0.0 0.00 0.00 0.00 91 1018.0
20210924114018 51 94 0.0 0.0 0.00 0.00 0.00 91 1017.9
20210924113513 51 94 0.0 0.0 0.00 0.00 0.00 90 1017.9
20210924113040 51 94 0.0 0.0 0.00 0.00 0.00 90 1017.9
20210924112538 51 94 0.0 0.0 0.00 0.00 0.00 90 1017.9
20210924112026 51 94 0.0 0.0 0.00 0.00 0.00 90 1017.8
20210924111513 51 94 0.0 0.0 0.00 0.00 0.00 90 1017.7
20210924111012 51 94 0.0 0.0 0.00 0.00 0.00 90 1017.7
20210924110513 51 94 0.0 0.0 0.00 0.00 0.00 90 1017.6
20210924110012 51 94 0.0 0.0 0.00 0.00 0.00 90 1017.5
20210924105512 51 94 0.0 0.0 0.00 0.00 0.00 89 1017.5
20210924105006 51 94 0.0 0.0 0.00 0.00 0.00 89 1017.4
20210924104515 52 94 0.0 0.0 0.00 0.00 0.00 89 1017.4
20210924104004 52 94 0.0 0.0 0.00 0.00 0.00 89 1017.4
20210924103503 52 94 0.0 0.0 0.00 0.00 0.00 89 1017.4
20210924103018 52 94 0.0 0.0 0.00 0.00 0.00 89 1017.3
20210924102505 52 94 0.0 0.0 0.00 0.00 0.00 89 1017.3
20210924102003 52 94 0.0 0.0 0.00 0.00 0.00 89 1017.3
20210924101506 52 94 0.0 0.0 0.00 0.00 0.00 89 1017.4
20210924101011 52 94 0.0 0.0 0.00 0.00 0.00 88 1017.3
20210924100509 52 94 0.0 0.0 0.00 0.00 0.00 88 1017.4
20210924100004 52 94 0.0 0.0 0.00 0.00 0.00 88 1017.3
20210924095506 52 94 0.0 0.0 0.00 0.00 0.00 88 1017.3
20210924095006 52 94 0.0 0.0 0.00 0.00 0.00 88 1017.3
20210924094627 52 94 0.0 0.0 0.00 0.00 0.00 88 1017.2
20210924094137 52 94 0.0 0.0 0.00 0.00 0.00 88 1017.2
20210924093559 53 94 0.0 0.0 0.00 0.00 0.00 87 1017.2
20210924093136 53 94 0.0 0.0 0.00 0.00 0.00 88 1017.2
20210924084109 55 94 0.0 0.0 0.00 0.00 0.00 85 1017.0
20210924083614 55 94 0.0 0.0 0.00 0.00 0.00 84 1016.9
20210924083115 56 94 0.0 0.0 0.00 0.00 0.00 84 1017.0
20210924082546 56 94 0.0 0.0 0.00 0.00 0.00 83 1017.1
20210924082045 56 94 0.0 0.0 0.00 0.00 0.00 83 1017.2
20210924081557 56 94 0.0 0.0 0.00 0.00 0.00 83 1017.2
20210924081044 56 94 0.0 0.0 0.00 0.00 0.00 82 1017.2
20210924080543 57 94 0.0 0.0 0.00 0.00 0.00 81 1017.1
20210924080055 57 94 0.0 0.0 0.00 0.00 0.00 81 1017.2
20210924075540 57 94 0.0 0.0 0.00 0.00 0.00 80 1017.2
20210924075040 58 94 0.0 0.0 0.00 0.00 0.00 79 1017.2
20210924074622 58 94 0.0 0.0 0.00 0.00 0.00 79 1017.2
20210924074037 58 94 0.0 0.0 0.00 0.00 0.00 79 1017.2
20210924073539 59 94 0.0 0.0 0.00 0.00 0.00 78 1017.2
20210924073040 59 94 0.0 0.0 0.00 0.00 0.00 78 1017.2
20210924072534 59 94 0.0 0.0 0.00 0.00 0.00 77 1017.3
20210924072045 60 94 0.0 0.0 0.00 0.00 0.00 77 1017.3
20210924071653 60 94 0.0 0.0 0.00 0.00 0.00 76 1017.3
20210924071031 60 94 0.0 0.0 0.00 0.00 0.00 76 1017.4
20210924070534 60 94 0.0 0.0 0.00 0.00 0.00 76 1017.3
20210924070051 60 94 0.0 0.0 0.00 0.00 0.00 76 1017.4
20210924065535 61 94 0.0 0.0 0.00 0.00 0.00 74 1017.4
20210924065056 61 94 0.0 0.0 0.00 0.00 0.00 74 1017.4
20210924064526 62 94 0.0 0.0 0.00 0.00 0.00 72 1017.4
20210924064029 62 94 0.0 0.0 0.00 0.00 0.00 71 1017.5
20210924063528 63 102 0.0 0.0 0.00 0.00 0.00 70 1017.5
20210924063031 64 102 0.0 3.0 0.00 0.00 0.00 69 1017.5
20210924062525 64 130 0.0 3.0 0.00 0.00 0.00 69 1017.4
20210924062018 65 137 0.0 5.0 0.00 0.00 0.00 69 1017.5
20210924061613 65 122 0.0 5.0 0.00 0.00 0.00 68 1017.5
20210924061017 65 138 0.0 5.0 0.00 0.00 0.00 68 1017.4
20210924060515 65 106 2.0 5.0 0.00 0.00 0.00 68 1017.4
20210924060040 65 131 2.0 5.0 0.00 0.00 0.00 68 1017.4
20210924055517 66 136 1.0 5.0 0.00 0.00 0.00 67 1017.4
20210924055016 66 138 2.0 7.0 0.00 0.00 0.00 67 1017.4
20210924054518 66 127 2.0 7.0 0.00 0.00 0.00 67 1017.3
20210924054013 66 140 1.0 7.0 0.00 0.00 0.00 66 1017.4
20210924053515 66 128 2.0 7.0 0.00 0.00 0.00 66 1017.3
20210924053040 66 139 2.0 5.0 0.00 0.00 0.00 66 1017.3
20210924052511 66 135 1.0 4.0 0.00 0.00 0.00 66 1017.3
20210924052010 66 149 1.0 5.0 0.00 0.00 0.00 65 1017.2
20210924051530 66 133 2.0 6.0 0.00 0.00 0.00 65 1017.2
20210924051009 66 149 2.0 7.0 0.00 0.00 0.00 65 1017.2
20210924050509 66 129 3.0 7.0 0.00 0.00 0.00 64 1017.1
20210924050008 66 144 2.0 7.0 0.00 0.00 0.00 64 1017.1
20210924045507 67 147 4.0 11.0 0.00 0.00 0.00 64 1017.1
20210924045006 67 125 2.0 8.0 0.00 0.00 0.00 63 1017.0
20210924044508 67 148 4.0 8.0 0.00 0.00 0.00 63 1016.9
20210924044019 67 149 2.0 6.0 0.00 0.00 0.00 62 1017.0
20210924043510 67 190 1.0 7.0 0.00 0.00 0.00 60 1017.0
20210924043014 67 169 3.0 9.0 0.00 0.00 0.00 60 1016.9
20210924042505 67 162 3.0 10.0 0.00 0.00 0.00 59 1016.9
20210924042011 67 147 2.0 9.0 0.00 0.00 0.00 58 1016.9
20210924041523 68 147 3.0 9.0 0.00 0.00 0.00 58 1016.9
20210924041005 68 157 3.0 7.0 0.00 0.00 0.00 57 1016.8
20210924040511 68 148 3.0 9.0 0.00 0.00 0.00 56 1016.8
20210924040006 68 150 5.0 9.0 0.00 0.00 0.00 55 1016.8
20210924035504 69 191 4.0 10.0 0.00 0.00 0.00 54 1016.7
20210924035004 69 184 5.0 10.0 0.00 0.00 0.00 53 1016.7
20210924034506 69 134 6.0 10.0 0.00 0.00 0.00 53 1016.6
20210924034005 70 152 4.0 10.0 0.00 0.00 0.00 52 1016.6
20210924033503 70 157 4.0 11.0 0.00 0.00 0.00 51 1016.5
20210924033009 70 147 6.0 11.0 0.00 0.00 0.00 50 1016.5
20210924032510 70 136 5.0 10.0 0.00 0.00 0.00 49 1016.4
20210924032002 70 157 5.0 10.0 0.00 0.00 0.00 47 1016.4
20210924031502 70 127 5.0 10.0 0.00 0.00 0.00 45 1016.3
20210924031002 70 120 3.0 10.0 0.00 0.00 0.00 43 1016.3
20210924030501 70 134 5.0 9.0 0.00 0.00 0.00 43 1016.2
20210924030005 70 148 3.0 7.0 0.00 0.00 0.00 42 1016.2
20210924025500 70 138 1.0 4.0 0.00 0.00 0.00 42 1016.1
20210924025001 70 133 1.0 4.0 0.00 0.00 0.00 41 1016.1
20210924024503 70 117 0.0 4.0 0.00 0.00 0.00 41 1016.0
20210924024109 70 139 1.0 4.0 0.00 0.00 0.00 40 1016.0
20210924023600 70 122 2.0 4.0 0.00 0.00 0.00 40 1016.0
20210924023147 70 134 1.0 3.0 0.00 0.00 0.00 40 1015.9
20210924022600 70 117 1.0 3.0 0.00 0.00 0.00 40 1015.9
20210924022059 70 145 1.0 3.0 0.00 0.00 0.00 40 1015.8
20210924021634 70 138 0.0 3.0 0.00 0.00 0.00 40 1015.8
20210924021114 70 128 1.0 3.0 0.00 0.00 0.00 40 1015.8
20210924020558 70 122 0.0 2.0 0.00 0.00 0.00 40 1015.6
20210924020223 70 140 0.0 0.0 0.00 0.00 0.00 40 1015.4
20210924015635 71 130 0.0 0.0 0.00 0.00 0.00 39 1015.4
20210924015058 71 126 0.0 2.0 0.00 0.00 0.00 39 1015.3
20210924014703 71 146 0.0 2.0 0.00 0.00 0.00 38 1015.3
20210924014104 71 133 0.0 2.0 0.00 0.00 0.00 38 1015.3
20210924013558 72 134 0.0 1.0 0.00 0.00 0.00 38 1015.2
20210924013155 72 129 0.0 1.0 0.00 0.00 0.00 38 1015.3
20210924012605 72 132 0.0 0.0 0.00 0.00 0.00 38 1015.3
20210924012113 72 130 0.0 0.0 0.00 0.00 0.00 38 1015.2
20210924011651 72 128 0.0 0.0 0.00 0.00 0.00 38 1015.2
20210924011116 72 125 0.0 0.0 0.00 0.00 0.00 38 1015.2
20210924010557 72 136 0.0 0.0 0.00 0.00 0.00 38 1015.3
20210924010138 72 136 0.0 0.0 0.00 0.00 0.00 38 1015.2
20210924005556 73 136 0.0 0.0 0.00 0.00 0.00 37 1015.2
20210924005059 73 136 0.0 0.0 0.00 0.00 0.00 36 1015.2
20210924004638 74 136 0.0 0.0 0.00 0.00 0.00 35 1015.2
20210924004056 75 136 0.0 0.0 0.00 0.00 0.00 35 1015.1
20210924003608 75 136 0.0 0.0 0.00 0.00 0.00 34 1015.1
20210924003217 76 136 0.0 0.0 0.00 0.00 0.00 32 1015.1
20210924002555 78 136 0.0 0.0 0.00 0.00 0.00 31 1015.1
20210924002054 79 136 0.0 0.0 0.00 0.00 0.00 30 1015.2
20210924001623 80 136 0.0 0.0 0.00 0.00 0.00 29 1015.2
20210924001054 82 136 0.0 0.0 0.00 0.00 0.00 28 1015.2
20210924000555 82 136 0.0 0.0 0.00 0.00 0.00 27 1015.1
20210924000322 83 136 0.0 1.0 0.00 0.00 0.00 26 1015.0
20210923235555 83 103 0.0 1.0 0.00 0.00 0.00 25 1015.1
20210923235101 83 84 0.0 2.0 0.00 0.00 0.00 25 1015.1
20210923234647 83 85 0.0 4.0 0.00 0.00 0.00 26 1015.1
20210923234054 83 113 0.0 4.0 0.00 0.00 0.00 26 1015.1
20210923233603 84 87 0.0 2.0 0.00 0.00 0.00 26 1015.1
20210923233338 84 84 0.0 4.0 0.00 0.00 0.00 25 1015.1
20210923232554 84 109 0.0 4.0 0.00 0.00 0.00 25 1015.1
20210923232102 85 86 1.0 3.0 0.00 0.00 0.00 24 1015.0
20210923231630 85 75 0.0 3.0 0.00 0.00 0.00 24 1015.1
20210923231052 85 127 0.0 3.0 0.00 0.00 0.00 23 1015.1
20210923230607 84 42 0.0 4.0 0.00 0.00 0.00 24 1015.1
20210923230251 84 44 0.0 3.0 0.00 0.00 0.00 24 1015.1
20210923225553 84 53 0.0 4.0 0.00 0.00 0.00 23 1015.2
20210923225052 84 137 1.0 6.0 0.00 0.00 0.00 22 1015.1
20210923224050 85 20 0.0 4.0 0.00 0.00 0.00 22 1015.2
20210923223610 85 328 0.0 3.0 0.00 0.00 0.00 21 1015.3
20210923223221 85 66 0.0 8.0 0.00 0.00 0.00 23 1015.2
20210923222549 85 46 2.0 8.0 0.00 0.00 0.00 21 1015.3
20210923222109 85 133 1.0 7.0 0.00 0.00 0.00 22 1015.3
20210923221635 85 93 3.0 7.0 0.00 0.00 0.00 23 1015.3
20210923221051 85 81 0.0 5.0 0.00 0.00 0.00 22 1015.3
20210923220549 85 147 0.0 8.0 0.00 0.00 0.00 22 1015.2
20210923220242 85 38 2.0 9.0 0.00 0.00 0.00 23 1015.3